TimeEDT,TemperatureF,Dew PointF,Humidity,Sea Level PressureIn,VisibilityMPH,Wind Direction,Wind SpeedMPH,Gust SpeedMPH,PrecipitationIn,Events,Conditions,WindDirDegrees,DateUTC
12:15 AM,44.1,29.1,56,30.16,10.0,SSE,4.6,-,N/A,,Clear,150,2013-03-11 04:15:00
12:35 AM,44.8,29.1,54,30.16,10.0,SSE,4.6,-,N/A,,Clear,150,2013-03-11 04:35:00
1:15 AM,44.4,28.9,55,30.16,10.0,SSE,4.6,-,N/A,,Clear,150,2013-03-11 05:15:00
1:35 AM,44.2,29.3,56,30.14,10.0,SSE,3.5,-,N/A,,Clear,150,2013-03-11 05:35:00
1:55 AM,45.1,29.3,54,30.15,10.0,Calm,Calm,-,N/A,,Clear,0,2013-03-11 05:55:00
2:15 AM,44.1,29.3,56,30.15,10.0,Calm,Calm,-,N/A,,Clear,0,2013-03-11 06:15:00
2:35 AM,43.5,29.5,58,30.13,10.0,South,6.9,-,N/A,,Clear,170,2013-03-11 06:35:00
3:15 AM,43.7,30.2,59,30.12,10.0,Calm,Calm,-,N/A,,Clear,0,2013-03-11 07:15:00
3:55 AM,42.6,31.6,65,30.11,10.0,SSE,4.6,-,N/A,,Clear,150,2013-03-11 07:55:00
4:15 AM,41.9,32.0,68,30.09,10.0,SSE,3.5,-,N/A,,Clear,150,2013-03-11 08:15:00
4:35 AM,41.4,32.4,70,30.08,10.0,Calm,Calm,-,N/A,,Scattered Clouds,0,2013-03-11 08:35:00
4:55 AM,41.7,33.3,72,30.08,10.0,SSE,3.5,-,N/A,,Overcast,160,2013-03-11 08:55:00
5:15 AM,41.9,33.8,73,30.08,10.0,SSE,3.5,-,N/A,,Overcast,160,2013-03-11 09:15:00
5:35 AM,42.1,34.5,75,30.06,10.0,SSE,8.1,-,N/A,,Overcast,150,2013-03-11 09:35:00
5:55 AM,42.1,35.2,77,30.05,10.0,SSE,8.1,-,N/A,,Overcast,150,2013-03-11 09:55:00
6:15 AM,42.1,35.6,78,30.06,10.0,SSE,6.9,-,N/A,,Overcast,160,2013-03-11 10:15:00
6:35 AM,42.3,36.3,79,30.05,10.0,SSE,4.6,-,N/A,,Overcast,160,2013-03-11 10:35:00
6:55 AM,42.3,36.7,81,30.05,10.0,SSE,4.6,-,N/A,,Overcast,150,2013-03-11 10:55:00
7:15 AM,42.3,36.7,81,30.05,10.0,SSE,4.6,-,N/A,,Overcast,160,2013-03-11 11:15:00
7:35 AM,42.8,37.6,82,30.04,10.0,South,5.8,-,N/A,,Overcast,170,2013-03-11 11:35:00
7:55 AM,43.7,38.1,81,30.05,10.0,SSE,4.6,-,N/A,,Overcast,150,2013-03-11 11:55:00
8:15 AM,44.1,38.3,80,30.05,10.0,SSE,4.6,18.4,N/A,,Overcast,160,2013-03-11 12:15:00
8:35 AM,44.1,37.6,78,30.05,10.0,SE,5.8,-,N/A,,Overcast,140,2013-03-11 12:35:00
8:55 AM,44.6,37.4,76,30.06,10.0,SSE,4.6,-,N/A,,Overcast,160,2013-03-11 12:55:00
9:15 AM,44.8,37.8,76,30.06,10.0,South,6.9,21.9,N/A,,Overcast,170,2013-03-11 13:15:00
9:35 AM,45.0,38.1,77,30.07,10.0,SSE,6.9,-,N/A,,Overcast,160,2013-03-11 13:35:00
9:55 AM,44.2,37.2,76,30.05,10.0,SSE,5.8,-,N/A,,Overcast,160,2013-03-11 13:55:00
10:15 AM,43.9,37.2,77,30.05,10.0,South,6.9,-,N/A,,Overcast,170,2013-03-11 14:15:00
10:35 AM,43.2,37.0,79,30.05,10.0,SSE,5.8,-,N/A,,Light Drizzle,150,2013-03-11 14:35:00
10:55 AM,43.0,36.5,78,30.04,10.0,SSE,6.9,-,N/A,,Overcast,150,2013-03-11 14:55:00
11:15 AM,42.4,35.8,77,30.04,10.0,SSE,5.8,-,N/A,,Overcast,150,2013-03-11 15:15:00
11:35 AM,42.4,35.4,76,30.04,10.0,SSE,5.8,-,N/A,,Overcast,160,2013-03-11 15:35:00
11:55 AM,42.3,35.6,77,30.04,10.0,SSE,5.8,-,N/A,,Overcast,150,2013-03-11 15:55:00
12:15 PM,41.9,36.7,82,30.04,4.0,SSE,5.8,-,N/A,,Haze,160,2013-03-11 16:15:00
12:35 PM,40.5,37.9,91,30.03,2.5,SSE,4.6,-,N/A,,Heavy Drizzle,150,2013-03-11 16:35:00
12:55 PM,40.5,38.5,93,30.02,2.5,SSE,5.8,-,N/A,,Drizzle,150,2013-03-11 16:55:00
1:15 PM,40.8,39.0,93,30.02,2.0,SSE,4.6,-,N/A,,Drizzle,150,2013-03-11 17:15:00
1:35 PM,41.0,39.2,93,30.03,0.8,SSE,5.8,-,N/A,,Drizzle,160,2013-03-11 17:35:00
1:55 PM,41.2,39.6,94,30.00,0.2,SSE,5.8,-,N/A,,Drizzle,150,2013-03-11 17:55:00
2:15 PM,42.3,40.6,94,29.99,0.2,SSE,4.6,-,N/A,,Light Drizzle,160,2013-03-11 18:15:00
2:35 PM,41.9,40.3,94,29.98,0.5,SSE,4.6,-,N/A,Fog,Fog,160,2013-03-11 18:35:00
2:55 PM,41.7,40.1,94,29.95,0.2,SSE,6.9,-,N/A,Fog,Fog,150,2013-03-11 18:55:00
3:15 PM,42.3,40.6,94,29.94,2.5,SSE,5.8,-,N/A,,Overcast,150,2013-03-11 19:15:00
3:35 PM,42.1,40.5,94,29.94,2.5,SE,4.6,-,N/A,,Overcast,140,2013-03-11 19:35:00
4:15 PM,42.3,40.8,95,29.93,5.0,SE,4.6,-,N/A,,Overcast,140,2013-03-11 20:15:00
4:35 PM,42.8,41.2,94,29.92,7.0,SE,3.5,-,N/A,,Overcast,140,2013-03-11 20:35:00
4:55 PM,43.7,41.9,93,29.91,7.0,South,3.5,-,N/A,,Overcast,170,2013-03-11 20:55:00
5:15 PM,43.9,41.5,91,29.92,10.0,Calm,Calm,-,N/A,,Overcast,0,2013-03-11 21:15:00
5:35 PM,44.6,41.4,88,29.90,10.0,Calm,Calm,-,N/A,,Overcast,0,2013-03-11 21:35:00
5:55 PM,44.6,41.4,88,29.91,10.0,Calm,Calm,-,N/A,,Overcast,0,2013-03-11 21:55:00
6:15 PM,45.0,41.9,89,29.89,10.0,SE,4.6,-,N/A,,Light Drizzle,140,2013-03-11 22:15:00
6:35 PM,46.0,42.8,88,29.87,10.0,SSE,5.8,-,N/A,Rain,Light Rain,160,2013-03-11 22:35:00
7:15 PM,46.9,42.8,86,29.89,10.0,SSE,4.6,-,N/A,Rain,Light Rain,150,2013-03-11 23:15:00
7:35 PM,46.2,43.2,89,29.89,7.0,SSE,4.6,-,N/A,Rain,Light Rain,160,2013-03-11 23:35:00
7:55 PM,45.9,43.5,92,29.89,5.0,SSE,3.5,-,N/A,Rain,Rain,160,2013-03-11 23:55:00
8:15 PM,46.2,43.9,92,29.88,7.0,SSE,5.8,-,N/A,Rain,Rain,150,2013-03-12 00:15:00
8:35 PM,46.0,43.7,92,29.88,5.0,Calm,Calm,-,0.01,Rain,Rain,0,2013-03-12 00:35:00
8:55 PM,46.4,44.4,93,29.89,5.0,Calm,Calm,-,0.03,Rain,Heavy Rain,0,2013-03-12 00:55:00
9:15 PM,46.4,44.6,93,29.90,1.5,South,3.5,-,0.04,Rain,Light Rain,170,2013-03-12 01:15:00
9:35 PM,46.6,44.8,93,29.90,0.8,Calm,Calm,-,0.08,Rain,Rain,0,2013-03-12 01:35:00
9:55 PM,46.4,44.6,93,29.89,0.5,Calm,Calm,-,0.10,Rain,Rain,0,2013-03-12 01:55:00
10:15 PM,46.6,44.8,93,29.89,0.5,Calm,Calm,-,0.01,Rain,Light Rain,0,2013-03-12 02:15:00
10:35 PM,46.6,45.0,94,29.88,0.5,Calm,Calm,-,0.01,Rain,Rain,0,2013-03-12 02:35:00
11:15 PM,47.3,45.7,94,29.88,1.2,Calm,Calm,-,0.01,Rain,Rain,0,2013-03-12 03:15:00
11:35 PM,47.7,46.0,94,29.88,1.0,Calm,Calm,-,0.05,Rain,Rain,0,2013-03-12 03:35:00